When you browse on this site, cookies collect data to enhance your experience and personalize the content and advertising you see.
Visit our Privacy Policy to learn more. By continuing to use the site, you agree to this use of cookies and data.
  • en Suisse
  • Liste des pays
  • À 7 jours
  • Température de l'eau
  • Carte satellitaire
  • Carte météo
  • Widgets météo
  • user-avatar
    Se connecter

    Météo par heure à Kitzbühel

    Ce jour, 23 Mars, Samedi

    Heure Température Précipitation Vent Pression Humidité
    00:00 +4°C° 0 mm 2 m/s 683 mmHg 79%
    01:00 +5°C° 0 mm 2 m/s 683 mmHg 73%
    02:00 +4°C° 0 mm 2 m/s 683 mmHg 74%
    03:00 +4°C° 0 mm 2 m/s 683 mmHg 74%
    04:00 +3°C° 0 mm 2 m/s 683 mmHg 74%
    05:00 +4°C° 0 mm 2 m/s 683 mmHg 73%
    06:00 +4°C° 0 mm 2 m/s 683 mmHg 72%
    07:00 +4°C° 0 mm 2 m/s 684 mmHg 68%
    08:00 +7°C° 0 mm 1 m/s 684 mmHg 66%
    09:00 +10°C° 0 mm 1 m/s 684 mmHg 65%
    10:00 +12°C° 0 mm 0 m/s 684 mmHg 63%
    11:00 +13°C° 0 mm 0 m/s 684 mmHg 62%
    12:00 +13°C° 0 mm 0 m/s 684 mmHg 60%
    13:00 +15°C° 0 mm 0 m/s 684 mmHg 58%
    14:00 +14°C° 0 mm 0 m/s 683 mmHg 61%
    15:00 +15°C° 0 mm 1 m/s 683 mmHg 63%
    16:00 +14°C° 0 mm 1 m/s 683 mmHg 66%
    17:00 +12°C° 0 mm 1 m/s 682 mmHg 72%
    18:00 +8°C° 0 mm 0 m/s 682 mmHg 78%
    19:00 +6°C° 0 mm 0 m/s 682 mmHg 85%
    20:00 +7°C° 0 mm 1 m/s 682 mmHg 85%
    21:00 +6°C° 0 mm 1 m/s 682 mmHg 86%
    22:00 +5°C° 0 mm 2 m/s 682 mmHg 86%
    23:00 +5°C° 0 mm 2 m/s 682 mmHg 85%

    Demain, 24 Mars, Dimanche

    Heure Température Précipitation Vent Pression Humidité
    00:00 +5°C° 0 mm 2 m/s 682 mmHg 84%
    01:00 +4°C° 0 mm 2 m/s 682 mmHg 83%
    02:00 +4°C° 0 mm 2 m/s 682 mmHg 82%
    03:00 +4°C° 0 mm 2 m/s 681 mmHg 81%
    04:00 +4°C° 0 mm 2 m/s 681 mmHg 80%
    05:00 +4°C° 0 mm 2 m/s 681 mmHg 78%
    06:00 +4°C° 0 mm 2 m/s 681 mmHg 77%
    07:00 +4°C° 0 mm 2 m/s 681 mmHg 76%
    08:00 +8°C° 0 mm 1 m/s 681 mmHg 71%
    09:00 +11°C° 0 mm 1 m/s 681 mmHg 67%
    10:00 +13°C° 0 mm 0 m/s 681 mmHg 62%
    11:00 +14°C° 0 mm 1 m/s 681 mmHg 60%
    12:00 +15°C° 0 mm 1 m/s 681 mmHg 59%
    13:00 +16°C° 0 mm 1 m/s 681 mmHg 57%
    14:00 +15°C° 0 mm 1 m/s 680 mmHg 60%
    15:00 +15°C° 0 mm 1 m/s 680 mmHg 64%
    16:00 +14°C° 0 mm 2 m/s 679 mmHg 67%
    17:00 +12°C° 0 mm 1 m/s 679 mmHg 76%
    18:00 +10°C° 0 mm 1 m/s 679 mmHg 85%
    19:00 +8°C° 0 mm 1 m/s 678 mmHg 93%
    20:00 +8°C° 0.1 mm 1 m/s 679 mmHg 94%
    21:00 +7°C° 0.1 mm 1 m/s 679 mmHg 95%
    22:00 +6°C° 0.1 mm 0 m/s 679 mmHg 96%
    23:00 +7°C° 0.1 mm 1 m/s 679 mmHg 97%

    Après-demain, 25 Mars, Lundi

    Heure Température Précipitation Vent Pression Humidité
    00:00 +6°C° 0.1 mm 1 m/s 678 mmHg 98%
    01:00 +6°C° 0.1 mm 1 m/s 678 mmHg 98%
    02:00 +6°C° 0.1 mm 1 m/s 678 mmHg 98%
    03:00 +6°C° 0.1 mm 1 m/s 677 mmHg 98%
    04:00 +5°C° 0.1 mm 1 m/s 677 mmHg 97%
    05:00 +5°C° 0.3 mm 1 m/s 677 mmHg 97%
    06:00 +6°C° 0.3 mm 1 m/s 677 mmHg 97%
    07:00 +6°C° 0.3 mm 1 m/s 677 mmHg 97%
    08:00 +6°C° 0.4 mm 1 m/s 677 mmHg 95%
    09:00 +5°C° 0.4 mm 2 m/s 677 mmHg 93%
    10:00 +5°C° 0.4 mm 2 m/s 676 mmHg 91%
    11:00 +5°C° 0.4 mm 2 m/s 676 mmHg 90%
    12:00 +4°C° 0.4 mm 2 m/s 675 mmHg 89%
    13:00 +3°C° 0.4 mm 3 m/s 675 mmHg 88%
    14:00 +2°C° 0.8 mm 3 m/s 675 mmHg 90%
    15:00 +1°C° 0.8 mm 3 m/s 675 mmHg 91%
    16:00 0°C° 0.8 mm 3 m/s 674 mmHg 92%
    17:00 0°C° 1.1 mm 3 m/s 675 mmHg 93%
    18:00 -1°C° 1.1 mm 3 m/s 676 mmHg 94%
    19:00 -2°C° 1.1 mm 3 m/s 676 mmHg 95%
    20:00 -2°C° 0.4 mm 3 m/s 677 mmHg 94%
    21:00 -4°C° 0.4 mm 3 m/s 678 mmHg 94%
    22:00 -4°C° 0.4 mm 3 m/s 678 mmHg 94%
    23:00 -3°C° 0.4 mm 2 m/s 679 mmHg 94%

    26 Mars, Mardi

    Heure Température Précipitation Vent Pression Humidité
    00:00 -4°C° 0.4 mm 2 m/s 679 mmHg 95%
    01:00 -4°C° 0.4 mm 2 m/s 680 mmHg 95%
    02:00 -4°C° 0.7 mm 2 m/s 680 mmHg 96%
    03:00 -4°C° 0.7 mm 2 m/s 680 mmHg 96%
    04:00 -4°C° 0.7 mm 2 m/s 680 mmHg 96%
    05:00 -4°C° 0.2 mm 2 m/s 681 mmHg 95%
    06:00 -4°C° 0.2 mm 2 m/s 682 mmHg 94%
    07:00 -2°C° 0.2 mm 1 m/s 682 mmHg 94%
    08:00 -1°C° 0.1 mm 1 m/s 682 mmHg 90%
    09:00 0°C° 0.1 mm 1 m/s 683 mmHg 85%
    10:00 +1°C° 0.1 mm 1 m/s 683 mmHg 81%
    11:00 +2°C° 0 mm 1 m/s 683 mmHg 79%
    12:00 +2°C° 0 mm 1 m/s 683 mmHg 78%
    13:00 +3°C° 0 mm 1 m/s 683 mmHg 76%
    14:00 +3°C° 0 mm 1 m/s 683 mmHg 77%
    15:00 +3°C° 0 mm 1 m/s 683 mmHg 77%
    16:00 +3°C° 0 mm 1 m/s 682 mmHg 78%
    17:00 +2°C° 0 mm 1 m/s 682 mmHg 82%
    18:00 0°C° 0 mm 1 m/s 682 mmHg 86%
    19:00 -2°C° 0 mm 0 m/s 683 mmHg 90%
    20:00 -2°C° 0 mm 1 m/s 683 mmHg 90%
    21:00 -2°C° 0 mm 1 m/s 683 mmHg 90%
    22:00 -3°C° 0 mm 1 m/s 683 mmHg 91%
    23:00 -3°C° 0 mm 1 m/s 683 mmHg 89%

    27 Mars, Mercredi

    Heure Température Précipitation Vent Pression Humidité
    00:00 -3°C° 0 mm 1 m/s 683 mmHg 88%
    01:00 -4°C° 0 mm 1 m/s 683 mmHg 86%
    02:00 -4°C° 0 mm 1 m/s 683 mmHg 86%
    03:00 -4°C° 0 mm 1 m/s 683 mmHg 85%
    04:00 -4°C° 0 mm 1 m/s 683 mmHg 85%
    05:00 -3°C° 0 mm 1 m/s 683 mmHg 85%
    06:00 -3°C° 0 mm 1 m/s 683 mmHg 85%
    07:00 -2°C° 0 mm 1 m/s 684 mmHg 85%
    08:00 0°C° 0 mm 1 m/s 684 mmHg 80%
    09:00 +2°C° 0 mm 1 m/s 684 mmHg 76%
    10:00 +4°C° 0 mm 1 m/s 684 mmHg 71%
    11:00 +4°C° 0 mm 1 m/s 684 mmHg 72%
    12:00 +5°C° 0 mm 1 m/s 684 mmHg 73%
    13:00 +5°C° 0 mm 1 m/s 684 mmHg 74%
    14:00 +5°C° 0 mm 1 m/s 683 mmHg 77%
    15:00 +5°C° 0 mm 1 m/s 683 mmHg 79%
    16:00 +4°C° 0 mm 1 m/s 683 mmHg 81%
    17:00 +3°C° 0 mm 1 m/s 683 mmHg 85%
    18:00 +1°C° 0 mm 1 m/s 683 mmHg 90%
    19:00 -1°C° 0 mm 0 m/s 683 mmHg 94%
    20:00 -1°C° 0 mm 0 m/s 683 mmHg 94%
    21:00 -2°C° 0 mm 0 m/s 684 mmHg 94%
    22:00 -1°C° 0 mm 1 m/s 684 mmHg 94%
    23:00 -1°C° 0 mm 1 m/s 684 mmHg 93%

    28 Mars, Jeudi

    Heure Température Précipitation Vent Pression Humidité
    00:00 -1°C° 0 mm 1 m/s 684 mmHg 92%
    01:00 -2°C° 0 mm 1 m/s 684 mmHg 91%
    02:00 -2°C° 0 mm 1 m/s 684 mmHg 91%
    03:00 -2°C° 0 mm 1 m/s 684 mmHg 90%
    04:00 -2°C° 0 mm 1 m/s 684 mmHg 90%
    05:00 -2°C° 0 mm 1 m/s 684 mmHg 89%
    06:00 -1°C° 0 mm 1 m/s 684 mmHg 88%
    07:00 -1°C° 0 mm 1 m/s 685 mmHg 87%
    08:00 +1°C° 0 mm 1 m/s 685 mmHg 83%
    09:00 +3°C° 0 mm 1 m/s 685 mmHg 78%
    10:00 +6°C° 0 mm 1 m/s 685 mmHg 74%
    11:00 +6°C° 0 mm 1 m/s 685 mmHg 72%
    12:00 +7°C° 0 mm 1 m/s 685 mmHg 71%
    13:00 +8°C° 0 mm 1 m/s 684 mmHg 69%
    14:00 +8°C° 0 mm 1 m/s 684 mmHg 71%
    15:00 +8°C° 0 mm 1 m/s 684 mmHg 73%
    16:00 +7°C° 0 mm 1 m/s 683 mmHg 75%
    17:00 +6°C° 0 mm 1 m/s 683 mmHg 81%
    18:00 +4°C° 0 mm 1 m/s 683 mmHg 88%
    19:00 +1°C° 0 mm 0 m/s 683 mmHg 94%
    20:00 +2°C° 0 mm 1 m/s 683 mmHg 93%
    21:00 +1°C° 0 mm 1 m/s 683 mmHg 93%
    22:00 +1°C° 0 mm 1 m/s 684 mmHg 92%
    23:00 +1°C° 0 mm 1 m/s 684 mmHg 90%
    Voir plus